Covington Municipal, GA

6:24 PM EST on November 22, 2017 (GMT -0500)
Covington Municipal

Weather History for K9A1 - July, 2013

Change the Weather History Date:

Monday, July 1, 2013

  Actual Average (KWDR) Record (KWDR)
Temperature  
Mean Temperature 76 °F -  
Max Temperature 84 °F 88 °F 105 °F (2012)
Min Temperature 68 °F 64 °F 51 °F (1980)
Cooling Degree Days 11    
Growing Degree Days 26 (Base 50)    
Moisture  
Dew Point 64 °F    
Average Humidity 67    
Maximum Humidity 83    
Minimum Humidity 45    
Precipitation  
Precipitation 0.00 in - - ()
Sea Level Pressure  
Sea Level Pressure 29.87 in    
Wind  
Wind Speed 0 mph (South)    
Max Wind Speed 7 mph    
Max Gust Speed -    
Visibility 8 miles    
Events Rain , Thunderstorm    
Averages and records for this station are not official NWS values.
T = Trace of Precipitation, MM = Missing Value Source: NWS Daily Summary

Daily Weather History Graph

Daily Weather History Graph

Search for Another Location

Airport or City:

Trip Planner

Search our weather history database for the weather conditions in past years. The results will help you decide how hot, cold, wet, or windy it might be!

Date:

Astronomy

Jul. 01, 2013 Rise Set
Actual Time 6:28 AM EDT 8:49 PM EDT
Civil Twilight 5:59 AM EDT 9:18 PM EDT
Nautical Twilight 5:24 AM EDT 9:54 PM EDT
Astronomical Twilight 4:45 AM EDT 10:32 PM EDT
Moon 1:47 AM EDT (7/1) 3:13 PM EDT (7/1)
Length of Visible Light 15h 18m
Length of Day
14h 20m
Waning Crescent, 35% of the Moon is Illuminated
Jul 1
Waning Crescent
Jul 8
New
Jul 15
First Quarter
Jul 22
Full
Jul 29
Last Quarter

Hourly Weather History & Observations

Time (EDT) Temp. Heat Index Dew Point Humidity Pressure Visibility Wind Dir Wind Speed Gust Speed Precip Events Conditions
12:15 AM 69.8 °F - 62.6 °F 78% 29.82 in 10.0 mi Calm Calm - N/A   Mostly Cloudy
12:35 AM 69.8 °F - 62.6 °F 78% 29.82 in 7.0 mi Calm Calm - N/A   Overcast
12:55 AM 69.8 °F - 62.6 °F 78% 29.82 in 7.0 mi Calm Calm - N/A   Mostly Cloudy
1:15 AM 69.8 °F - 62.6 °F 78% 29.81 in 7.0 mi Calm Calm - N/A   Scattered Clouds
1:35 AM 69.8 °F - 62.6 °F 78% 29.81 in 7.0 mi Calm Calm - N/A   Mostly Cloudy
1:55 AM 68.0 °F - 62.6 °F 83% 29.81 in 7.0 mi Calm Calm - N/A   Mostly Cloudy
2:15 AM 69.8 °F - 62.6 °F 78% 29.81 in 7.0 mi Calm Calm - N/A   Overcast
2:35 AM 69.8 °F - 62.6 °F 78% 29.81 in 7.0 mi Calm Calm - N/A   Overcast
2:55 AM 69.8 °F - 62.6 °F 78% 29.81 in 10.0 mi Calm Calm - N/A   Overcast
3:15 AM 69.8 °F - 64.4 °F 83% 29.81 in 1.5 mi Calm Calm - N/A   Haze
3:35 AM 69.8 °F - 64.4 °F 83% 29.81 in 0.8 mi Calm Calm - N/A   Haze
3:55 AM 69.8 °F - 64.4 °F 83% 29.81 in 1.2 mi Calm Calm - N/A   Haze
4:15 AM 69.8 °F - 64.4 °F 83% 29.81 in 1.2 mi Calm Calm - N/A   Haze
4:55 AM 69.8 °F - 64.4 °F 83% 29.83 in 0.5 mi Calm Calm - N/A   Haze
5:15 AM 71.6 °F - 64.4 °F 78% 29.83 in 0.8 mi Calm Calm - N/A   Haze
5:35 AM 69.8 °F - 64.4 °F 83% 29.84 in 0.8 mi Calm Calm - N/A   Haze
5:55 AM 71.6 °F - 64.4 °F 78% 29.84 in 2.5 mi Calm Calm - N/A   Haze
6:15 AM 71.6 °F - 64.4 °F 78% 29.85 in 5.0 mi Calm Calm - N/A   Haze
6:35 AM 71.6 °F - 64.4 °F 78% 29.85 in 7.0 mi Calm Calm - N/A   Overcast
6:55 AM 71.6 °F - 64.4 °F 78% 29.85 in 5.0 mi Calm Calm - N/A   Haze
7:15 AM 71.6 °F - 64.4 °F 78% 29.85 in 5.0 mi Calm Calm - N/A   Haze
7:35 AM 71.6 °F - 64.4 °F 78% 29.85 in 7.0 mi Calm Calm - N/A   Mostly Cloudy
7:55 AM 71.6 °F - 66.2 °F 83% 29.86 in 10.0 mi Calm Calm - N/A   Scattered Clouds
8:15 AM 71.6 °F - 66.2 °F 83% 29.86 in 7.0 mi Calm Calm - N/A   Mostly Cloudy
8:35 AM 73.4 °F - 66.2 °F 78% 29.87 in 10.0 mi Calm Calm - N/A   Mostly Cloudy
8:55 AM 73.4 °F - 64.4 °F 73% 29.88 in 10.0 mi Calm Calm - N/A   Overcast
9:15 AM 73.4 °F - 64.4 °F 73% 29.89 in 10.0 mi Calm Calm - N/A   Overcast
9:35 AM 73.4 °F - 64.4 °F 73% 29.89 in 10.0 mi Calm Calm - N/A   Overcast
9:55 AM 73.4 °F - 64.4 °F 73% 29.89 in 10.0 mi Calm Calm - N/A   Overcast
10:15 AM 73.4 °F - 64.4 °F 73% 29.89 in 10.0 mi Calm Calm - N/A   Overcast
10:35 AM 73.4 °F - 64.4 °F 73% 29.90 in 10.0 mi Calm Calm - N/A   Overcast
10:55 AM 77.0 °F - 62.6 °F 61% 29.89 in 10.0 mi Calm Calm - N/A   Overcast
11:15 AM 77.0 °F - 62.6 °F 61% 29.89 in 10.0 mi Calm Calm - N/A   Overcast
11:35 AM 78.8 °F - 62.6 °F 57% 29.89 in 10.0 mi Calm Calm - N/A   Overcast
11:55 AM 78.8 °F - 62.6 °F 57% 29.90 in 10.0 mi Calm Calm - N/A   Overcast
12:15 PM 78.8 °F - 62.6 °F 57% 29.89 in 10.0 mi Calm Calm - N/A   Overcast
12:35 PM 80.6 °F 81.8 °F 62.6 °F 54% 29.89 in 10.0 mi Calm Calm - N/A   Overcast
12:55 PM 80.6 °F 81.8 °F 62.6 °F 54% 29.89 in 10.0 mi SSE 3.5 mph - N/A   Overcast
1:15 PM 80.6 °F 82.3 °F 64.4 °F 58% 29.89 in 10.0 mi South 3.5 mph - N/A   Mostly Cloudy
1:35 PM 80.6 °F 82.3 °F 64.4 °F 58% 29.88 in 10.0 mi SSW 3.5 mph - N/A   Mostly Cloudy
1:55 PM 80.6 °F 81.8 °F 62.6 °F 54% 29.88 in 10.0 mi Calm Calm - N/A   Mostly Cloudy
2:15 PM 82.4 °F 83.4 °F 62.6 °F 51% 29.87 in 10.0 mi SW 3.5 mph - N/A   Scattered Clouds
2:35 PM 82.4 °F 82.9 °F 60.8 °F 48% 29.87 in 10.0 mi Calm Calm - N/A   Clear
2:55 PM 84.2 °F 84.4 °F 60.8 °F 45% 29.86 in 10.0 mi South 3.5 mph - N/A   Clear
3:15 PM 84.2 °F 84.4 °F 60.8 °F 45% 29.86 in 7.0 mi Calm Calm - N/A   Scattered Clouds
3:35 PM 82.4 °F 82.9 °F 60.8 °F 48% 29.87 in 7.0 mi SSW 3.5 mph - N/A   Clear
3:55 PM 84.2 °F 84.4 °F 60.8 °F 45% 29.86 in 7.0 mi SSW 3.5 mph - N/A   Scattered Clouds
4:15 PM 84.2 °F 84.4 °F 60.8 °F 45% 29.86 in 10.0 mi Calm Calm - N/A   Scattered Clouds
4:35 PM 82.4 °F 82.9 °F 60.8 °F 48% 29.87 in 10.0 mi SW 3.5 mph - N/A   Scattered Clouds
4:55 PM 82.4 °F 82.9 °F 60.8 °F 48% 29.87 in 10.0 mi SSW 3.5 mph - N/A   Scattered Clouds
5:15 PM 82.4 °F 83.4 °F 62.6 °F 51% 29.87 in 7.0 mi Calm Calm - N/A   Scattered Clouds
5:35 PM 82.4 °F 83.4 °F 62.6 °F 51% 29.87 in 10.0 mi Calm Calm - N/A   Scattered Clouds
5:55 PM 82.4 °F 83.4 °F 62.6 °F 51% 29.87 in 10.0 mi Calm Calm - N/A   Scattered Clouds
6:15 PM 82.4 °F 83.4 °F 62.6 °F 51% 29.87 in 10.0 mi Calm Calm - N/A   Scattered Clouds
6:35 PM 82.4 °F 83.4 °F 62.6 °F 51% 29.87 in 10.0 mi Calm Calm - N/A   Scattered Clouds
6:55 PM 80.6 °F 81.8 °F 62.6 °F 54% 29.88 in 10.0 mi Calm Calm - N/A   Overcast
7:15 PM 80.6 °F 81.8 °F 62.6 °F 54% 29.88 in 10.0 mi Calm Calm - N/A   Mostly Cloudy
7:35 PM 80.6 °F 81.8 °F 62.6 °F 54% 29.89 in 10.0 mi Calm Calm - N/A   Clear
7:55 PM 80.6 °F 82.3 °F 64.4 °F 58% 29.89 in 10.0 mi Calm Calm - N/A   Clear
8:15 PM 78.8 °F - 64.4 °F 61% 29.90 in 10.0 mi Calm Calm - N/A   Clear
8:55 PM 77.0 °F - 68.0 °F 74% 29.91 in 10.0 mi Calm Calm - N/A   Mostly Cloudy
9:15 PM 77.0 °F - 68.0 °F 74% 29.92 in 10.0 mi Calm Calm - N/A   Overcast
9:35 PM 77.0 °F - 68.0 °F 74% 29.93 in 10.0 mi Calm Calm - N/A   Overcast
9:55 PM 77.0 °F - 68.0 °F 74% 29.93 in 10.0 mi Calm Calm - N/A Rain Light Rain
10:15 PM 77.0 °F - 68.0 °F 74% 29.93 in 10.0 mi Calm Calm - N/A Rain Light Rain
10:35 PM 75.2 °F - 68.0 °F 78% 29.94 in 10.0 mi Calm Calm - N/A Rain Light Rain
10:55 PM 75.2 °F - 68.0 °F 78% 29.94 in 7.0 mi Calm Calm - N/A Rain Light Rain
11:15 PM 75.2 °F - 68.0 °F 78% 29.93 in 7.0 mi Calm Calm - N/A Rain Light Rain
11:35 PM 75.2 °F - 68.0 °F 78% 29.94 in 7.0 mi ESE 6.9 mph - N/A Rain , Thunderstorm Light Thunderstorms and Rain
11:55 PM 73.4 °F - 64.4 °F 73% 29.94 in 10.0 mi ESE 4.6 mph - N/A Rain Light Rain